Year,Month,Day,Hour,Minute,Value (Times are PST for temperature in C)
2015,12,08,06,35,10.60
2015,12,08,06,36,10.60
2015,12,08,06,37,10.60
2015,12,08,06,38,10.60
2015,12,08,06,39,10.60
2015,12,08,06,40,10.60
2015,12,08,06,41,10.60
2015,12,08,06,42,10.60
2015,12,08,06,43,10.60
2015,12,08,06,44,10.60
2015,12,08,06,45,10.60
2015,12,08,06,46,10.60
2015,12,08,06,47,10.60
2015,12,08,06,48,10.60
2015,12,08,06,49,10.60
2015,12,08,06,50,10.60
2015,12,08,06,51,10.60
2015,12,08,06,52,10.60
2015,12,08,06,53,10.60
2015,12,08,06,54,10.60
2015,12,08,06,55,10.60
2015,12,08,06,56,10.60
2015,12,08,06,57,10.60
2015,12,08,06,58,10.60
2015,12,08,06,59,10.60
2015,12,08,07,00,10.60
2015,12,08,07,01,10.60
2015,12,08,07,02,10.60
2015,12,08,07,03,10.70
2015,12,08,07,04,10.70
2015,12,08,07,05,10.70
2015,12,08,07,06,10.70
2015,12,08,07,07,10.70
2015,12,08,07,08,10.70
2015,12,08,07,09,10.70
2015,12,08,07,10,10.70
2015,12,08,07,11,10.70
2015,12,08,07,12,10.70
2015,12,08,07,13,10.70
2015,12,08,07,14,10.70
2015,12,08,07,15,10.70
2015,12,08,07,16,10.70
2015,12,08,07,17,10.70
2015,12,08,07,18,10.70
2015,12,08,07,19,10.70
2015,12,08,07,20,10.70
2015,12,08,07,21,10.80
2015,12,08,07,22,10.80
2015,12,08,07,23,10.80
2015,12,08,07,24,10.80
2015,12,08,07,25,10.80
2015,12,08,07,26,10.80
2015,12,08,07,27,10.80
2015,12,08,07,28,10.80
2015,12,08,07,29,10.80
2015,12,08,07,30,10.80
2015,12,08,07,31,10.80
2015,12,08,07,32,10.80
2015,12,08,07,33,10.80
2015,12,08,07,34,10.80
2015,12,08,07,35,10.80
2015,12,08,07,36,10.70
2015,12,08,07,37,10.70
2015,12,08,07,38,10.70
2015,12,08,07,39,10.80
2015,12,08,07,40,10.80
2015,12,08,07,41,10.80
2015,12,08,07,42,10.80
2015,12,08,07,43,10.80
2015,12,08,07,44,10.80
2015,12,08,07,45,10.80
2015,12,08,07,46,10.80
2015,12,08,07,47,10.80
2015,12,08,07,48,10.90
2015,12,08,07,49,10.90
2015,12,08,07,50,10.90
2015,12,08,07,51,10.90
2015,12,08,07,52,10.90
2015,12,08,07,53,10.90
2015,12,08,07,54,10.90
2015,12,08,07,55,10.90
2015,12,08,07,56,10.90
2015,12,08,07,57,11.00
2015,12,08,07,58,11.00
2015,12,08,07,59,11.00
2015,12,08,08,00,11.00
2015,12,08,08,01,11.00
2015,12,08,08,02,11.00
2015,12,08,08,03,11.00
2015,12,08,08,04,11.00
2015,12,08,08,05,11.00
2015,12,08,08,06,11.10
2015,12,08,08,07,11.10
2015,12,08,08,08,11.10
2015,12,08,08,09,11.10
2015,12,08,08,10,11.10
2015,12,08,08,11,11.10
2015,12,08,08,12,11.10
2015,12,08,08,13,11.10
2015,12,08,08,14,11.10
2015,12,08,08,15,11.10
2015,12,08,08,16,11.20
2015,12,08,08,17,11.20
2015,12,08,08,18,11.20
2015,12,08,08,19,11.20
2015,12,08,08,20,11.20
2015,12,08,08,21,11.20
2015,12,08,08,22,11.20
2015,12,08,08,23,11.20
2015,12,08,08,24,11.20
2015,12,08,08,25,11.20
2015,12,08,08,26,11.20
2015,12,08,08,27,11.20
2015,12,08,08,28,11.20
2015,12,08,08,29,11.30
2015,12,08,08,30,11.30
2015,12,08,08,31,11.30
2015,12,08,08,32,11.30
2015,12,08,08,33,11.30
2015,12,08,08,34,11.30
2015,12,08,08,35,11.30
2015,12,08,08,36,11.30
2015,12,08,08,37,11.30
2015,12,08,08,38,11.30
2015,12,08,08,39,11.40
2015,12,08,08,40,11.40
2015,12,08,08,41,11.40
2015,12,08,08,42,11.40
2015,12,08,08,43,11.40
2015,12,08,08,44,11.40
2015,12,08,08,45,11.40
2015,12,08,08,46,11.40
2015,12,08,08,47,11.40
2015,12,08,08,48,11.40
2015,12,08,08,49,11.40
2015,12,08,08,50,11.40
2015,12,08,08,51,11.40
2015,12,08,08,52,11.40
2015,12,08,08,53,11.50
2015,12,08,08,54,11.50
2015,12,08,08,55,11.50
2015,12,08,08,56,11.50
2015,12,08,08,57,11.50
2015,12,08,08,58,11.50
2015,12,08,08,59,11.50
2015,12,08,09,00,11.50
2015,12,08,09,01,11.50
2015,12,08,09,02,11.50
2015,12,08,09,03,11.50
2015,12,08,09,04,11.50
2015,12,08,09,05,11.60
2015,12,08,09,06,11.60
2015,12,08,09,07,11.60
2015,12,08,09,08,11.60
2015,12,08,09,09,11.60
2015,12,08,09,10,11.60
2015,12,08,09,11,11.60
2015,12,08,09,12,11.60
2015,12,08,09,13,11.60
2015,12,08,09,14,11.70
2015,12,08,09,15,11.70
2015,12,08,09,16,11.70
2015,12,08,09,17,11.70
2015,12,08,09,18,11.80
2015,12,08,09,19,11.80
2015,12,08,09,20,11.80
2015,12,08,09,21,11.80
2015,12,08,09,22,11.80
2015,12,08,09,23,11.80
2015,12,08,09,24,11.80
2015,12,08,09,25,11.90
2015,12,08,09,26,11.90
2015,12,08,09,27,12.00
2015,12,08,09,28,12.00
2015,12,08,09,29,12.10
2015,12,08,09,30,12.10
2015,12,08,09,31,12.10
2015,12,08,09,32,12.10
2015,12,08,09,33,12.30
2015,12,08,09,34,12.30
2015,12,08,09,35,12.30
2015,12,08,09,36,12.30
2015,12,08,09,37,12.30
2015,12,08,09,38,12.40
2015,12,08,09,39,12.50
2015,12,08,09,40,12.50
2015,12,08,09,41,12.50
2015,12,08,09,42,12.60
2015,12,08,09,43,12.60
2015,12,08,09,44,12.80
2015,12,08,09,45,12.80
2015,12,08,09,46,12.80
2015,12,08,09,47,12.80
2015,12,08,09,48,12.90
2015,12,08,09,49,12.90
2015,12,08,09,50,12.90
2015,12,08,09,51,12.90
2015,12,08,09,52,13.00
2015,12,08,09,53,13.00
2015,12,08,09,54,13.10
2015,12,08,09,55,13.20
2015,12,08,09,56,13.20
2015,12,08,09,57,13.20
2015,12,08,09,58,13.30
2015,12,08,09,59,13.30
2015,12,08,10,00,13.30
2015,12,08,10,01,13.30
2015,12,08,10,02,13.30
2015,12,08,10,03,13.30
2015,12,08,10,04,13.30
2015,12,08,10,05,13.40
2015,12,08,10,06,13.40
2015,12,08,10,07,13.40
2015,12,08,10,08,13.50
2015,12,08,10,09,13.40
2015,12,08,10,10,13.40
2015,12,08,10,11,13.40
2015,12,08,10,12,13.40
2015,12,08,10,13,13.40
2015,12,08,10,14,13.50
2015,12,08,10,15,13.60
2015,12,08,10,16,13.70
2015,12,08,10,17,13.70
2015,12,08,10,18,13.70
2015,12,08,10,19,13.60
2015,12,08,10,20,13.60
2015,12,08,10,21,13.60
2015,12,08,10,22,13.60
2015,12,08,10,23,13.50
2015,12,08,10,24,13.50
2015,12,08,10,25,13.50
2015,12,08,10,26,13.50
2015,12,08,10,27,13.60
2015,12,08,10,28,13.70
2015,12,08,10,29,13.70
2015,12,08,10,30,13.80
2015,12,08,10,31,13.80
2015,12,08,10,32,13.70
2015,12,08,10,33,13.70
2015,12,08,10,34,13.60
2015,12,08,10,35,13.60
2015,12,08,10,36,13.50
2015,12,08,10,37,13.60
2015,12,08,10,38,13.60
2015,12,08,10,39,13.50
2015,12,08,10,40,13.50
2015,12,08,10,41,13.50
2015,12,08,10,42,13.40
2015,12,08,10,43,13.40
2015,12,08,10,44,13.40
2015,12,08,10,45,13.30
2015,12,08,10,46,13.30
2015,12,08,10,47,13.30
2015,12,08,10,48,13.30
2015,12,08,10,49,13.20
2015,12,08,10,50,13.20
2015,12,08,10,51,13.20
2015,12,08,10,52,13.20
2015,12,08,10,53,13.20
2015,12,08,10,54,13.20
2015,12,08,10,55,13.20
2015,12,08,10,56,13.20
2015,12,08,10,57,13.20
2015,12,08,10,58,13.20
2015,12,08,10,59,13.20
2015,12,08,11,00,13.20
2015,12,08,11,01,13.20
2015,12,08,11,02,13.20
2015,12,08,11,03,13.20
2015,12,08,11,04,13.20
2015,12,08,11,05,13.30
2015,12,08,11,06,13.40
2015,12,08,11,07,13.50
2015,12,08,11,08,13.60
2015,12,08,11,09,13.60
2015,12,08,11,10,13.50
2015,12,08,11,11,13.40
2015,12,08,11,12,13.30
2015,12,08,11,13,13.30
2015,12,08,11,14,13.20
2015,12,08,11,15,13.10
2015,12,08,11,16,13.00
2015,12,08,11,17,12.90
2015,12,08,11,18,12.90
2015,12,08,11,19,12.80
2015,12,08,11,20,12.80
2015,12,08,11,21,12.80
2015,12,08,11,22,12.70
2015,12,08,11,23,12.70
2015,12,08,11,24,12.60
2015,12,08,11,25,12.60
2015,12,08,11,26,12.60
2015,12,08,11,27,12.60
2015,12,08,11,28,12.50
2015,12,08,11,29,12.50
2015,12,08,11,30,12.40
2015,12,08,11,31,12.30
2015,12,08,11,32,12.30
2015,12,08,11,33,12.30
2015,12,08,11,34,12.30
2015,12,08,11,35,12.30
2015,12,08,11,36,12.40
2015,12,08,11,37,12.50
2015,12,08,11,38,12.50
2015,12,08,11,39,12.50
2015,12,08,11,40,12.50
2015,12,08,11,41,12.40
2015,12,08,11,42,12.30
2015,12,08,11,43,12.30
2015,12,08,11,44,12.30
2015,12,08,11,45,12.30
2015,12,08,11,46,12.40
2015,12,08,11,47,12.40
2015,12,08,11,48,12.50
2015,12,08,11,49,12.50
2015,12,08,11,50,12.60
2015,12,08,11,51,12.60
2015,12,08,11,52,12.60
2015,12,08,11,53,12.50
2015,12,08,11,54,12.50
2015,12,08,11,55,12.50
2015,12,08,11,56,12.50
2015,12,08,11,57,12.50
2015,12,08,11,58,12.50
2015,12,08,11,59,12.50
2015,12,08,12,00,12.40
2015,12,08,12,01,12.40
2015,12,08,12,02,12.50
2015,12,08,12,03,12.50
2015,12,08,12,04,12.60
2015,12,08,12,05,12.60
2015,12,08,12,06,12.60
2015,12,08,12,07,12.50
2015,12,08,12,08,12.50
2015,12,08,12,09,12.40
2015,12,08,12,10,12.40
2015,12,08,12,11,12.30
2015,12,08,12,12,12.30
2015,12,08,12,13,12.30
2015,12,08,12,14,12.30
2015,12,08,12,15,12.30
2015,12,08,12,16,12.30
2015,12,08,12,17,12.20
2015,12,08,12,18,12.20
2015,12,08,12,19,12.20
2015,12,08,12,20,12.30
2015,12,08,12,21,12.40
2015,12,08,12,22,12.50
2015,12,08,12,23,12.60
2015,12,08,12,24,12.60
2015,12,08,12,25,12.60
2015,12,08,12,26,12.70
2015,12,08,12,27,12.70
2015,12,08,12,28,12.70
2015,12,08,12,29,12.70
2015,12,08,12,30,12.70
2015,12,08,12,31,12.70
2015,12,08,12,32,12.70
2015,12,08,12,33,12.70
2015,12,08,12,34,12.70
2015,12,08,12,35,12.80
2015,12,08,12,36,12.80
2015,12,08,12,37,12.90
2015,12,08,12,38,12.90
2015,12,08,12,39,12.90
2015,12,08,12,40,12.90
2015,12,08,12,41,12.90
2015,12,08,12,42,12.80
2015,12,08,12,43,12.70
2015,12,08,12,44,12.60
2015,12,08,12,45,12.60
2015,12,08,12,46,12.50
2015,12,08,12,47,12.30
2015,12,08,12,48,12.20
2015,12,08,12,49,12.10
2015,12,08,12,50,12.00
2015,12,08,12,51,11.90
2015,12,08,12,52,11.80
2015,12,08,12,53,11.70
2015,12,08,12,54,11.70
2015,12,08,12,55,11.60
2015,12,08,12,56,11.50
2015,12,08,12,57,11.50
2015,12,08,12,58,11.40
2015,12,08,12,59,11.40
2015,12,08,13,00,11.40
2015,12,08,13,01,11.40
2015,12,08,13,02,11.30
2015,12,08,13,03,11.30
2015,12,08,13,04,11.30
2015,12,08,13,05,11.30
2015,12,08,13,06,11.30
2015,12,08,13,07,11.30
2015,12,08,13,08,11.30
2015,12,08,13,09,11.30
2015,12,08,13,10,11.20
2015,12,08,13,11,11.20
2015,12,08,13,12,11.20
2015,12,08,13,13,11.20
2015,12,08,13,14,11.20
2015,12,08,13,15,11.10
2015,12,08,13,16,11.10
2015,12,08,13,17,11.10
2015,12,08,13,18,11.10
2015,12,08,13,19,11.10
2015,12,08,13,20,11.10
2015,12,08,13,21,11.10
2015,12,08,13,22,11.00
2015,12,08,13,23,11.00
2015,12,08,13,24,11.00
2015,12,08,13,25,10.90
2015,12,08,13,26,10.90
2015,12,08,13,27,10.90
2015,12,08,13,28,10.90
2015,12,08,13,29,10.90
2015,12,08,13,30,10.90
2015,12,08,13,31,10.90
2015,12,08,13,32,10.90
2015,12,08,13,33,10.90
2015,12,08,13,34,10.90
2015,12,08,13,35,10.90
2015,12,08,13,36,10.90
2015,12,08,13,37,10.90
2015,12,08,13,38,10.90
2015,12,08,13,39,10.90
2015,12,08,13,40,10.90
2015,12,08,13,41,10.90
2015,12,08,13,42,10.90
2015,12,08,13,43,10.90
2015,12,08,13,44,10.90
2015,12,08,13,45,10.90
2015,12,08,13,46,10.90
2015,12,08,13,47,10.80
2015,12,08,13,48,10.80
2015,12,08,13,49,10.80
2015,12,08,13,50,10.80
2015,12,08,13,51,10.80
2015,12,08,13,52,10.80
2015,12,08,13,53,10.80
2015,12,08,13,54,10.80
2015,12,08,13,55,10.80
2015,12,08,13,56,10.80
2015,12,08,13,57,10.80
2015,12,08,13,58,10.80
2015,12,08,13,59,10.80
2015,12,08,14,00,10.80
2015,12,08,14,01,10.80
2015,12,08,14,02,10.80
2015,12,08,14,03,10.80
2015,12,08,14,04,10.80
2015,12,08,14,05,10.80
2015,12,08,14,06,10.80
2015,12,08,14,07,10.80
2015,12,08,14,08,10.80
2015,12,08,14,09,10.80
2015,12,08,14,10,10.80
2015,12,08,14,11,10.80
2015,12,08,14,12,10.80
2015,12,08,14,13,10.80
2015,12,08,14,14,10.80
2015,12,08,14,15,10.80
2015,12,08,14,16,10.80
2015,12,08,14,17,10.70
2015,12,08,14,18,10.70
2015,12,08,14,19,10.70
2015,12,08,14,20,10.70
2015,12,08,14,21,10.70
2015,12,08,14,22,10.70
2015,12,08,14,23,10.70
2015,12,08,14,24,10.70
2015,12,08,14,25,10.70
2015,12,08,14,26,10.70
2015,12,08,14,27,10.70
2015,12,08,14,28,10.70
2015,12,08,14,29,10.70
2015,12,08,14,30,10.70
2015,12,08,14,31,10.70
2015,12,08,14,32,10.70
2015,12,08,14,33,10.70
2015,12,08,14,34,10.70
2015,12,08,14,35,10.70
2015,12,08,14,36,10.70
2015,12,08,14,37,10.70
2015,12,08,14,38,10.70
2015,12,08,14,39,10.70
2015,12,08,14,40,10.70
2015,12,08,14,41,10.70
2015,12,08,14,42,10.70
2015,12,08,14,43,10.70
2015,12,08,14,44,10.70
2015,12,08,14,45,10.70
2015,12,08,14,46,10.70
2015,12,08,14,47,10.70
2015,12,08,14,48,10.70
2015,12,08,14,49,10.70
2015,12,08,14,50,10.70
2015,12,08,14,51,10.70
2015,12,08,14,52,10.70
2015,12,08,14,53,10.70
2015,12,08,14,54,10.70
2015,12,08,14,55,10.60
2015,12,08,14,56,10.60
2015,12,08,14,57,10.60
2015,12,08,14,58,10.60
2015,12,08,14,59,10.50
2015,12,08,15,00,10.50
2015,12,08,15,01,10.50
2015,12,08,15,02,10.50
2015,12,08,15,03,10.50
2015,12,08,15,04,10.50
2015,12,08,15,05,10.40
2015,12,08,15,06,10.40
2015,12,08,15,07,10.40
2015,12,08,15,08,10.40
2015,12,08,15,09,10.40
2015,12,08,15,10,10.40
2015,12,08,15,11,10.30
2015,12,08,15,12,10.30
2015,12,08,15,13,10.30
2015,12,08,15,14,10.30
2015,12,08,15,15,10.30
2015,12,08,15,16,10.30
2015,12,08,15,17,10.30
2015,12,08,15,18,10.30
2015,12,08,15,19,10.30
2015,12,08,15,20,10.30
2015,12,08,15,21,10.30
2015,12,08,15,22,10.30
2015,12,08,15,23,10.30
2015,12,08,15,24,10.20
2015,12,08,15,25,10.20
2015,12,08,15,26,10.20
2015,12,08,15,27,10.20
2015,12,08,15,28,10.20
2015,12,08,15,29,10.20
2015,12,08,15,30,10.20
2015,12,08,15,31,10.20
2015,12,08,15,32,10.20
2015,12,08,15,33,10.20
2015,12,08,15,34,10.20
2015,12,08,15,35,10.20
2015,12,08,15,36,10.10
2015,12,08,15,37,10.10
2015,12,08,15,38,10.10
2015,12,08,15,39,10.10
2015,12,08,15,40,10.10
2015,12,08,15,41,10.10
2015,12,08,15,42,10.10
2015,12,08,15,43,10.10
2015,12,08,15,44,10.10
2015,12,08,15,45,10.10
2015,12,08,15,46,10.10
2015,12,08,15,47,10.00
2015,12,08,15,48,10.00
2015,12,08,15,49,10.20
2015,12,08,15,50,10.20
2015,12,08,15,51,10.20
2015,12,08,15,52,10.20
2015,12,08,15,53,10.20
2015,12,08,15,54,10.10
2015,12,08,15,55,10.10
2015,12,08,15,56,10.10
2015,12,08,15,57,10.00
2015,12,08,15,58,10.00
2015,12,08,15,59,10.00
2015,12,08,16,00,9.90
2015,12,08,16,01,9.90
2015,12,08,16,02,9.90
2015,12,08,16,03,9.90
2015,12,08,16,04,9.90
2015,12,08,16,05,9.90
2015,12,08,16,06,9.90
2015,12,08,16,07,9.90
2015,12,08,16,08,9.80
2015,12,08,16,09,9.80
2015,12,08,16,10,9.80
2015,12,08,16,11,9.80
2015,12,08,16,12,9.80
2015,12,08,16,13,9.80
2015,12,08,16,14,9.80
2015,12,08,16,15,9.70
2015,12,08,16,16,9.70
2015,12,08,16,17,9.70
2015,12,08,16,18,9.70
2015,12,08,16,19,9.70
2015,12,08,16,20,9.80
2015,12,08,16,21,9.80
2015,12,08,16,22,9.80
2015,12,08,16,23,9.80
2015,12,08,16,24,9.70
2015,12,08,16,25,9.70
2015,12,08,16,26,9.70
2015,12,08,16,27,9.70
2015,12,08,16,28,9.70
2015,12,08,16,29,9.70
2015,12,08,16,30,9.70
2015,12,08,16,31,9.70
2015,12,08,16,32,9.70
2015,12,08,16,33,9.70
2015,12,08,16,34,9.70
2015,12,08,16,35,9.70
2015,12,08,16,36,9.70
2015,12,08,16,37,9.70
2015,12,08,16,38,9.70
2015,12,08,16,39,9.70
2015,12,08,16,40,9.70
2015,12,08,16,41,9.70
2015,12,08,16,42,9.70
2015,12,08,16,43,9.70
2015,12,08,16,44,9.60
2015,12,08,16,45,9.60
2015,12,08,16,46,9.60
2015,12,08,16,47,9.60
2015,12,08,16,48,9.60
2015,12,08,16,49,9.50
2015,12,08,16,50,9.60
2015,12,08,16,51,9.50
2015,12,08,16,52,9.50
2015,12,08,16,53,9.50
2015,12,08,16,54,9.50
2015,12,08,16,55,9.50
2015,12,08,16,56,9.50
2015,12,08,16,57,9.50
2015,12,08,16,58,9.50
2015,12,08,16,59,9.50
2015,12,08,17,00,9.40
2015,12,08,17,01,9.40
2015,12,08,17,02,9.50
2015,12,08,17,03,9.50
2015,12,08,17,04,9.50
2015,12,08,17,05,9.50
2015,12,08,17,06,9.50
2015,12,08,17,07,9.50
2015,12,08,17,08,9.50
2015,12,08,17,09,9.50
2015,12,08,17,10,9.50
2015,12,08,17,11,9.40
2015,12,08,17,12,9.40
2015,12,08,17,13,9.40
2015,12,08,17,14,9.40
2015,12,08,17,15,9.40
2015,12,08,17,16,9.50
2015,12,08,17,17,9.50
2015,12,08,17,18,9.60
2015,12,08,17,19,9.60
2015,12,08,17,20,9.60
2015,12,08,17,21,9.60
2015,12,08,17,22,9.60
2015,12,08,17,23,9.60
2015,12,08,17,24,9.60
2015,12,08,17,25,9.60
2015,12,08,17,26,9.50
2015,12,08,17,27,9.50
2015,12,08,17,28,9.40
2015,12,08,17,29,9.40
2015,12,08,17,30,9.40
2015,12,08,17,31,9.40
2015,12,08,17,32,9.40
2015,12,08,17,33,9.40
2015,12,08,17,34,9.40
2015,12,08,17,35,9.40
2015,12,08,17,36,9.50
2015,12,08,17,37,9.50
2015,12,08,17,38,9.50
2015,12,08,17,39,9.50
2015,12,08,17,40,9.50
2015,12,08,17,41,9.60
2015,12,08,17,42,9.60
2015,12,08,17,43,9.60
2015,12,08,17,44,9.60
2015,12,08,17,45,9.60
2015,12,08,17,46,9.60
2015,12,08,17,47,9.60
2015,12,08,17,48,9.60
2015,12,08,17,49,9.60
2015,12,08,17,50,9.60
2015,12,08,17,51,9.60
2015,12,08,17,52,9.60
2015,12,08,17,53,9.60
2015,12,08,17,54,9.60
2015,12,08,17,55,9.60
2015,12,08,17,56,9.60
2015,12,08,17,57,9.60
2015,12,08,17,58,9.60
2015,12,08,17,59,9.60
2015,12,08,18,00,9.60
2015,12,08,18,01,9.60
2015,12,08,18,02,9.60
2015,12,08,18,03,9.60
2015,12,08,18,04,9.60
2015,12,08,18,05,9.50
2015,12,08,18,06,9.50
2015,12,08,18,07,9.50
2015,12,08,18,08,9.50
2015,12,08,18,09,9.40
2015,12,08,18,10,9.40
2015,12,08,18,11,9.40
2015,12,08,18,12,9.40
2015,12,08,18,13,9.40
2015,12,08,18,14,9.40
2015,12,08,18,15,9.40
2015,12,08,18,16,9.40
2015,12,08,18,17,9.40
2015,12,08,18,18,9.40
2015,12,08,18,19,9.40
2015,12,08,18,20,9.40
2015,12,08,18,21,9.40
2015,12,08,18,22,9.40
2015,12,08,18,23,9.40
2015,12,08,18,24,9.40
2015,12,08,18,25,9.40
2015,12,08,18,26,9.40
2015,12,08,18,27,9.50
2015,12,08,18,28,9.50
2015,12,08,18,29,9.50
2015,12,08,18,30,9.40
2015,12,08,18,31,9.40
2015,12,08,18,32,9.40
2015,12,08,18,33,9.40
2015,12,08,18,34,9.40
2015,12,08,18,35,9.50
2015,12,08,18,36,9.50
2015,12,08,18,37,9.50
2015,12,08,18,38,9.50
2015,12,08,18,39,9.50
2015,12,08,18,40,9.50
2015,12,08,18,41,9.50
2015,12,08,18,42,9.50
2015,12,08,18,43,9.50
2015,12,08,18,44,9.50
2015,12,08,18,45,9.50
2015,12,08,18,46,9.50
2015,12,08,18,47,9.40
2015,12,08,18,48,9.50
2015,12,08,18,49,9.50
2015,12,08,18,50,9.40
2015,12,08,18,51,9.40
2015,12,08,18,52,9.40
2015,12,08,18,53,9.40
2015,12,08,18,54,9.40
2015,12,08,18,55,9.40
2015,12,08,18,56,9.40
2015,12,08,18,57,9.40
2015,12,08,18,58,9.40
2015,12,08,18,59,9.40
2015,12,08,19,00,9.40
2015,12,08,19,01,9.40
2015,12,08,19,02,9.40
2015,12,08,19,03,9.40
2015,12,08,19,04,9.40
2015,12,08,19,05,9.40
2015,12,08,19,06,9.40
2015,12,08,19,07,9.40
2015,12,08,19,08,9.40
2015,12,08,19,09,9.40
2015,12,08,19,10,9.40
2015,12,08,19,11,9.40
2015,12,08,19,12,9.40
2015,12,08,19,13,9.40
2015,12,08,19,14,9.40
2015,12,08,19,15,9.40
2015,12,08,19,16,9.40
2015,12,08,19,17,9.40
2015,12,08,19,18,9.60
2015,12,08,19,19,9.70
2015,12,08,19,20,9.80
2015,12,08,19,21,10.00
2015,12,08,19,22,10.10
2015,12,08,19,23,10.20
2015,12,08,19,24,10.30
2015,12,08,19,25,10.30
2015,12,08,19,26,10.40
2015,12,08,19,27,10.40
2015,12,08,19,28,10.50
2015,12,08,19,29,10.60
2015,12,08,19,30,10.60
2015,12,08,19,31,10.70
2015,12,08,19,32,10.70
2015,12,08,19,33,10.70
2015,12,08,19,34,10.70
2015,12,08,19,35,10.70
2015,12,08,19,36,10.80
2015,12,08,19,37,10.80
2015,12,08,19,38,10.80
2015,12,08,19,39,10.80
2015,12,08,19,40,10.60
2015,12,08,19,41,10.60
2015,12,08,19,42,10.60
2015,12,08,19,43,10.60
2015,12,08,19,44,10.60
2015,12,08,19,45,10.60
2015,12,08,19,46,10.60
2015,12,08,19,47,10.60
2015,12,08,19,48,10.60
2015,12,08,19,49,10.60
2015,12,08,19,50,10.60
2015,12,08,19,51,10.60
2015,12,08,19,52,10.60
2015,12,08,19,53,10.60
2015,12,08,19,54,10.60
2015,12,08,19,55,10.60
2015,12,08,19,56,10.50
2015,12,08,19,57,10.50
2015,12,08,19,58,10.40
2015,12,08,19,59,10.40
2015,12,08,20,00,10.40
2015,12,08,20,01,10.30
2015,12,08,20,02,10.30
2015,12,08,20,03,10.20
2015,12,08,20,04,10.10
2015,12,08,20,05,10.10
2015,12,08,20,06,10.10
2015,12,08,20,07,10.00
2015,12,08,20,08,10.00
2015,12,08,20,09,9.90
2015,12,08,20,10,9.80
2015,12,08,20,11,9.80
2015,12,08,20,12,9.70
2015,12,08,20,13,9.70
2015,12,08,20,14,9.70
2015,12,08,20,15,9.60
2015,12,08,20,16,9.60
2015,12,08,20,17,9.50
2015,12,08,20,18,9.50
2015,12,08,20,19,9.40
2015,12,08,20,20,9.40
2015,12,08,20,21,9.40
2015,12,08,20,22,9.30
2015,12,08,20,23,9.30
2015,12,08,20,24,9.30
2015,12,08,20,25,9.30
2015,12,08,20,26,9.20
2015,12,08,20,27,9.20
2015,12,08,20,28,9.20
2015,12,08,20,29,9.20
2015,12,08,20,30,9.10
2015,12,08,20,31,9.10
2015,12,08,20,32,9.10
2015,12,08,20,33,9.10
2015,12,08,20,34,9.00
2015,12,08,20,35,9.00
2015,12,08,20,36,9.00
2015,12,08,20,37,8.90
2015,12,08,20,38,8.90
2015,12,08,20,39,8.90
2015,12,08,20,40,8.90
2015,12,08,20,41,8.90
2015,12,08,20,42,8.90
2015,12,08,20,43,8.90
2015,12,08,20,44,8.90
2015,12,08,20,45,8.80
2015,12,08,20,46,8.80
2015,12,08,20,47,8.80
2015,12,08,20,48,8.80
2015,12,08,20,49,8.80
2015,12,08,20,50,8.80
2015,12,08,20,51,8.80
2015,12,08,20,52,8.70
2015,12,08,20,53,8.70
2015,12,08,20,54,8.70
2015,12,08,20,55,8.70
2015,12,08,20,56,8.70
2015,12,08,20,57,8.60
2015,12,08,20,58,8.60
2015,12,08,20,59,8.60
2015,12,08,21,00,8.60
2015,12,08,21,01,8.60
2015,12,08,21,02,8.60
2015,12,08,21,03,8.60
2015,12,08,21,04,8.60
2015,12,08,21,05,8.60
2015,12,08,21,06,8.60
2015,12,08,21,07,8.50
2015,12,08,21,08,8.50
2015,12,08,21,09,8.50
2015,12,08,21,10,8.50
2015,12,08,21,11,8.50
2015,12,08,21,12,8.50
2015,12,08,21,13,8.50
2015,12,08,21,14,8.40
2015,12,08,21,15,8.40
2015,12,08,21,16,8.40
2015,12,08,21,17,8.40
2015,12,08,21,18,8.40
2015,12,08,21,19,8.40
2015,12,08,21,20,8.40
2015,12,08,21,21,8.40
2015,12,08,21,22,8.40
2015,12,08,21,23,8.30
2015,12,08,21,24,8.30
2015,12,08,21,25,8.30
2015,12,08,21,26,8.30
2015,12,08,21,27,8.30
2015,12,08,21,28,8.30
2015,12,08,21,29,8.30
2015,12,08,21,30,8.30
2015,12,08,21,31,8.20
2015,12,08,21,32,8.20
2015,12,08,21,33,8.20
2015,12,08,21,34,8.20
2015,12,08,21,35,8.20
2015,12,08,21,36,8.20
2015,12,08,21,37,8.20
2015,12,08,21,38,8.20
2015,12,08,21,39,8.20
2015,12,08,21,40,8.20
2015,12,08,21,41,8.10
2015,12,08,21,42,8.10
2015,12,08,21,43,8.10
2015,12,08,21,44,8.10
2015,12,08,21,45,8.10
2015,12,08,21,46,8.10
2015,12,08,21,47,8.00
2015,12,08,21,48,8.00
2015,12,08,21,49,8.00
2015,12,08,21,50,8.00
2015,12,08,21,51,8.00
2015,12,08,21,52,7.90
2015,12,08,21,53,7.90
2015,12,08,21,54,7.90
2015,12,08,21,55,7.90
2015,12,08,21,56,7.90
2015,12,08,21,57,7.90
2015,12,08,21,58,7.90
2015,12,08,21,59,7.90
2015,12,08,22,00,7.80
2015,12,08,22,01,7.80
2015,12,08,22,02,7.80
2015,12,08,22,03,7.80
2015,12,08,22,04,7.80
2015,12,08,22,05,7.80
2015,12,08,22,06,7.80
2015,12,08,22,07,7.80
2015,12,08,22,08,7.80
2015,12,08,22,09,7.80
2015,12,08,22,10,7.80
2015,12,08,22,11,7.80
2015,12,08,22,12,7.80
2015,12,08,22,13,7.70
2015,12,08,22,14,7.70
2015,12,08,22,15,7.70
2015,12,08,22,16,7.70
2015,12,08,22,17,7.70
2015,12,08,22,18,7.70
2015,12,08,22,19,7.70
2015,12,08,22,20,7.70
2015,12,08,22,21,7.70
2015,12,08,22,22,7.70
2015,12,08,22,23,7.70
2015,12,08,22,24,7.70
2015,12,08,22,25,7.70
2015,12,08,22,26,7.70
2015,12,08,22,27,7.70
2015,12,08,22,28,7.70
2015,12,08,22,29,7.70
2015,12,08,22,30,7.70
2015,12,08,22,31,7.70
2015,12,08,22,32,7.70
2015,12,08,22,33,7.70
2015,12,08,22,34,7.60
2015,12,08,22,35,7.60
2015,12,08,22,36,7.60
2015,12,08,22,37,7.60
2015,12,08,22,38,7.60
2015,12,08,22,39,7.60
2015,12,08,22,40,7.60
2015,12,08,22,41,7.60
2015,12,08,22,42,7.60
2015,12,08,22,43,7.60
2015,12,08,22,44,7.60
2015,12,08,22,45,7.60
2015,12,08,22,46,7.60
2015,12,08,22,47,7.50
2015,12,08,22,48,7.50
2015,12,08,22,49,7.50
2015,12,08,22,50,7.50
2015,12,08,22,51,7.50
2015,12,08,22,52,7.50
2015,12,08,22,53,7.50
2015,12,08,22,54,7.50
2015,12,08,22,55,7.50
2015,12,08,22,56,7.50
2015,12,08,22,57,7.50
2015,12,08,22,58,7.50
2015,12,08,22,59,7.50
2015,12,08,23,00,7.50
2015,12,08,23,01,7.50
2015,12,08,23,02,7.50
2015,12,08,23,03,7.50
2015,12,08,23,04,7.50
2015,12,08,23,05,7.50
2015,12,08,23,06,7.50
2015,12,08,23,07,7.40
2015,12,08,23,08,7.40
2015,12,08,23,09,7.40
2015,12,08,23,10,7.40
2015,12,08,23,11,7.40
2015,12,08,23,12,7.40
2015,12,08,23,13,7.40
2015,12,08,23,14,7.40
2015,12,08,23,15,7.40
2015,12,08,23,16,7.40
2015,12,08,23,17,7.40
2015,12,08,23,18,7.40
2015,12,08,23,19,7.40
2015,12,08,23,20,7.40
2015,12,08,23,21,7.40
2015,12,08,23,22,7.40
2015,12,08,23,23,7.40
2015,12,08,23,24,7.40
2015,12,08,23,25,7.40
2015,12,08,23,26,7.40
2015,12,08,23,27,7.40
2015,12,08,23,28,7.40
2015,12,08,23,29,7.40
2015,12,08,23,30,7.40
2015,12,08,23,31,7.40
2015,12,08,23,32,7.40
2015,12,08,23,33,7.30
2015,12,08,23,34,7.30
2015,12,08,23,35,7.30
2015,12,08,23,36,7.30
2015,12,08,23,37,7.30
2015,12,08,23,38,7.30
2015,12,08,23,39,7.30
2015,12,08,23,40,7.30
2015,12,08,23,41,7.30
2015,12,08,23,42,7.30
2015,12,08,23,43,7.30
2015,12,08,23,44,7.40
2015,12,08,23,45,7.40
2015,12,08,23,46,7.30
2015,12,08,23,47,7.40
2015,12,08,23,48,7.30
2015,12,08,23,49,7.30
2015,12,08,23,50,7.30
2015,12,08,23,51,7.30
2015,12,08,23,52,7.30
2015,12,08,23,53,7.30
2015,12,08,23,54,7.30
2015,12,08,23,55,7.30
2015,12,08,23,56,7.30
2015,12,08,23,57,7.30
2015,12,08,23,58,7.30
2015,12,08,23,59,7.30
